• In Hungary
  • List of Countries
  • For 7 days
  • Water Temperature
  • Satellite Maps
  • Weather Map
  • News
  • Weather Widgets
  • user-avatar
    Login

    Hourly Weather Kasama

    Today, 14 November, Wednesday

    Time Temperature Precipitation Wind Pressure Humidity
    00:00 +30°C° 0 mm 1 mps 720 mmHg 29%
    01:00 +30°C° 0 mm 1 mps 720 mmHg 30%
    02:00 +29°C° 0 mm 1 mps 719 mmHg 31%
    03:00 +29°C° 0 mm 1 mps 719 mmHg 31%
    04:00 +29°C° 0 mm 1 mps 719 mmHg 31%
    05:00 +28°C° 0 mm 1 mps 719 mmHg 31%
    06:00 +30°C° 0 mm 2 mps 720 mmHg 26%
    07:00 +31°C° 0 mm 3 mps 720 mmHg 22%
    08:00 +34°C° 0 mm 4 mps 721 mmHg 17%
    09:00 +36°C° 0 mm 4 mps 721 mmHg 16%
    10:00 +37°C° 0 mm 4 mps 721 mmHg 16%
    11:00 +40°C° 0 mm 4 mps 721 mmHg 15%
    12:00 +41°C° 0 mm 4 mps 720 mmHg 15%
    13:00 +41°C° 0 mm 4 mps 719 mmHg 15%
    14:00 +42°C° 0 mm 4 mps 718 mmHg 16%
    15:00 +40°C° 0 mm 3 mps 718 mmHg 16%
    16:00 +39°C° 0 mm 3 mps 718 mmHg 17%
    17:00 +38°C° 0 mm 2 mps 717 mmHg 18%
    18:00 +37°C° 0 mm 2 mps 718 mmHg 19%
    19:00 +35°C° 0 mm 2 mps 718 mmHg 20%
    20:00 +34°C° 0 mm 2 mps 719 mmHg 21%
    21:00 +34°C° 0 mm 2 mps 719 mmHg 20%
    22:00 +33°C° 0 mm 3 mps 719 mmHg 19%
    23:00 +33°C° 0 mm 3 mps 720 mmHg 18%

    Tomorrow, 15 November, Thursday

    Time Temperature Precipitation Wind Pressure Humidity
    00:00 +31°C° 0 mm 3 mps 719 mmHg 16%
    01:00 +31°C° 0 mm 3 mps 719 mmHg 14%
    02:00 +30°C° 0 mm 4 mps 719 mmHg 12%
    03:00 +30°C° 0 mm 3 mps 719 mmHg 12%
    04:00 +29°C° 0 mm 3 mps 720 mmHg 12%
    05:00 +29°C° 0 mm 3 mps 720 mmHg 12%
    06:00 +30°C° 0 mm 4 mps 720 mmHg 12%
    07:00 +32°C° 0 mm 5 mps 721 mmHg 11%
    08:00 +33°C° 0 mm 5 mps 721 mmHg 11%
    09:00 +35°C° 0 mm 5 mps 721 mmHg 10%
    10:00 +37°C° 0 mm 5 mps 722 mmHg 10%
    11:00 +40°C° 0 mm 5 mps 722 mmHg 9%
    12:00 +40°C° 0 mm 5 mps 721 mmHg 9%
    13:00 +41°C° 0 mm 5 mps 720 mmHg 9%
    14:00 +41°C° 0 mm 5 mps 719 mmHg 10%
    15:00 +40°C° 0 mm 4 mps 719 mmHg 10%
    16:00 +40°C° 0 mm 4 mps 719 mmHg 11%
    17:00 +38°C° 0 mm 3 mps 719 mmHg 11%
    18:00 +36°C° 0 mm 3 mps 719 mmHg 12%
    19:00 +35°C° 0 mm 3 mps 720 mmHg 12%
    20:00 +33°C° 0 mm 3 mps 720 mmHg 13%
    21:00 +33°C° 0 mm 3 mps 720 mmHg 13%
    22:00 +31°C° 0 mm 3 mps 721 mmHg 13%
    23:00 +31°C° 0 mm 3 mps 721 mmHg 13%

    Day after tomorrow, 16 November, Friday

    Time Temperature Precipitation Wind Pressure Humidity
    00:00 +30°C° 0 mm 4 mps 721 mmHg 13%
    01:00 +30°C° 0 mm 4 mps 721 mmHg 13%
    02:00 +30°C° 0 mm 4 mps 721 mmHg 13%
    03:00 +29°C° 0 mm 4 mps 721 mmHg 14%
    04:00 +29°C° 0 mm 4 mps 721 mmHg 14%
    05:00 +28°C° 0 mm 4 mps 721 mmHg 15%
    06:00 +29°C° 0 mm 4 mps 721 mmHg 14%
    07:00 +30°C° 0 mm 5 mps 722 mmHg 14%
    08:00 +32°C° 0 mm 5 mps 723 mmHg 13%
    09:00 +34°C° 0 mm 5 mps 723 mmHg 12%
    10:00 +36°C° 0 mm 5 mps 723 mmHg 11%
    11:00 +37°C° 0 mm 5 mps 723 mmHg 10%
    12:00 +39°C° 0 mm 5 mps 722 mmHg 10%
    13:00 +40°C° 0 mm 5 mps 721 mmHg 10%
    14:00 +40°C° 0 mm 4 mps 721 mmHg 10%
    15:00 +40°C° 0 mm 4 mps 720 mmHg 10%
    16:00 +38°C° 0 mm 3 mps 720 mmHg 11%
    17:00 +37°C° 0 mm 3 mps 720 mmHg 12%
    18:00 +35°C° 0 mm 3 mps 721 mmHg 13%
    19:00 +34°C° 0 mm 3 mps 721 mmHg 14%
    20:00 +32°C° 0 mm 2 mps 722 mmHg 15%
    21:00 +31°C° 0 mm 3 mps 722 mmHg 15%
    22:00 +31°C° 0 mm 3 mps 722 mmHg 15%
    23:00 +30°C° 0 mm 3 mps 722 mmHg 15%

    17 November, Saturday

    Time Temperature Precipitation Wind Pressure Humidity
    00:00 +30°C° 0 mm 3 mps 722 mmHg 16%
    01:00 +29°C° 0 mm 3 mps 722 mmHg 16%
    02:00 +29°C° 0 mm 3 mps 721 mmHg 16%
    03:00 +28°C° 0 mm 3 mps 721 mmHg 17%
    04:00 +28°C° 0 mm 3 mps 722 mmHg 17%
    05:00 +27°C° 0 mm 3 mps 722 mmHg 17%
    06:00 +28°C° 0 mm 3 mps 722 mmHg 16%
    07:00 +29°C° 0 mm 4 mps 723 mmHg 15%
    08:00 +32°C° 0 mm 4 mps 724 mmHg 14%
    09:00 +34°C° 0 mm 4 mps 724 mmHg 13%
    10:00 +36°C° 0 mm 4 mps 724 mmHg 11%
    11:00 +38°C° 0 mm 4 mps 723 mmHg 10%
    12:00 +40°C° 0 mm 4 mps 722 mmHg 10%
    13:00 +40°C° 0 mm 3 mps 722 mmHg 9%
    14:00 +40°C° 0 mm 3 mps 721 mmHg 9%
    15:00 +39°C° 0 mm 3 mps 720 mmHg 10%
    16:00 +39°C° 0 mm 2 mps 720 mmHg 10%
    17:00 +38°C° 0 mm 2 mps 720 mmHg 11%
    18:00 +36°C° 0 mm 2 mps 721 mmHg 12%
    19:00 +34°C° 0 mm 2 mps 721 mmHg 12%
    20:00 +32°C° 0 mm 2 mps 722 mmHg 13%
    21:00 +31°C° 0 mm 2 mps 722 mmHg 13%
    22:00 +30°C° 0 mm 2 mps 722 mmHg 14%
    23:00 +30°C° 0 mm 2 mps 722 mmHg 14%

    18 November, Sunday

    Time Temperature Precipitation Wind Pressure Humidity
    00:00 +29°C° 0 mm 2 mps 721 mmHg 14%
    01:00 +29°C° 0 mm 2 mps 721 mmHg 15%
    02:00 +28°C° 0 mm 2 mps 721 mmHg 15%
    03:00 +28°C° 0 mm 2 mps 721 mmHg 15%
    04:00 +27°C° 0 mm 2 mps 721 mmHg 15%
    05:00 +27°C° 0 mm 3 mps 721 mmHg 15%
    06:00 +28°C° 0 mm 3 mps 722 mmHg 14%
    07:00 +30°C° 0 mm 3 mps 723 mmHg 13%
    08:00 +32°C° 0 mm 4 mps 723 mmHg 12%
    09:00 +35°C° 0 mm 4 mps 723 mmHg 10%
    10:00 +37°C° 0 mm 4 mps 723 mmHg 9%
    11:00 +40°C° 0 mm 4 mps 723 mmHg 8%
    12:00 +41°C° 0 mm 4 mps 722 mmHg 8%
    13:00 +42°C° 0 mm 3 mps 721 mmHg 8%
    14:00 +42°C° 0 mm 3 mps 720 mmHg 7%
    15:00 +40°C° 0 mm 3 mps 720 mmHg 8%
    16:00 +39°C° 0 mm 2 mps 720 mmHg 9%
    17:00 +38°C° 0 mm 2 mps 720 mmHg 10%
    18:00 +36°C° 0 mm 2 mps 720 mmHg 11%
    19:00 +35°C° 0 mm 2 mps 721 mmHg 12%
    20:00 +32°C° 0 mm 2 mps 721 mmHg 13%
    21:00 +31°C° 0 mm 2 mps 721 mmHg 14%
    22:00 +31°C° 0 mm 2 mps 721 mmHg 15%
    23:00 +30°C° 0 mm 2 mps 721 mmHg 16%

    19 November, Monday

    Time Temperature Precipitation Wind Pressure Humidity
    00:00 +30°C° 0 mm 2 mps 721 mmHg 16%
    01:00 +29°C° 0 mm 3 mps 721 mmHg 17%
    02:00 +29°C° 0 mm 3 mps 720 mmHg 17%
    03:00 +28°C° 0 mm 2 mps 721 mmHg 18%
    04:00 +28°C° 0 mm 2 mps 721 mmHg 18%
    05:00 +27°C° 0 mm 2 mps 721 mmHg 19%
    06:00 +29°C° 0 mm 2 mps 722 mmHg 17%
    07:00 +30°C° 0 mm 3 mps 722 mmHg 16%
    08:00 +31°C° 0 mm 3 mps 723 mmHg 15%
    09:00 +34°C° 0 mm 3 mps 722 mmHg 13%
    10:00 +37°C° 0 mm 3 mps 722 mmHg 11%
    11:00 +39°C° 0 mm 3 mps 722 mmHg 9%
    12:00 +40°C° 0 mm 3 mps 721 mmHg 9%
    13:00 +40°C° 0 mm 3 mps 720 mmHg 8%
    14:00 +42°C° 0 mm 3 mps 719 mmHg 8%
    15:00 +40°C° 0 mm 2 mps 719 mmHg 9%
    16:00 +39°C° 0 mm 2 mps 719 mmHg 9%
    17:00 +38°C° 0 mm 2 mps 719 mmHg 10%
    18:00 +36°C° 0 mm 2 mps 719 mmHg 11%
    19:00 +35°C° 0 mm 2 mps 720 mmHg 12%
    20:00 +32°C° 0 mm 2 mps 720 mmHg 13%
    21:00 +31°C° 0 mm 2 mps 720 mmHg 13%
    22:00 +31°C° 0 mm 2 mps 720 mmHg 14%
    23:00 +30°C° 0 mm 2 mps 720 mmHg 14%
    Show more